Regional Weather Roundup
Issued by NWS

Home | Current Version | Previous Version | Graphics & Text | Print | Product List | Glossary On
Versions: 1 2 3 4 5 6 7 8 9 10 11 12 13 14 15 16 17 18 19 20 21 22 23 24 25 26 27 28
000
ASUS45 KSLC 152210
RWRUT

UTAH REGIONAL WEATHER ROUNDUP
NATIONAL WEATHER SERVICE SALT LAKE CITY UT
400 PM MDT SUN OCT 15 2017

UTZ001>011-023>025-152300-

NORTHERN UTAH

CITY           SKY/WX    TMP DP  RH WIND       PRES   REMARKS
BRIGHAM CITY   SUNNY     56  10  16 NW3       30.46F
HILL AFB       SUNNY     53  18  25 N5        30.45F
LOGAN          SUNNY     56  16  20 CALM      30.45F
OGDEN          SUNNY     54  21  27 CALM      30.45F
SALT LAKE CITY MOSUNNY   58  23  26 N8        30.45F
TOOELE VALLEY  SUNNY     50  27  40 N5        30.47S
WENDOVER       SUNNY     51  14  22 SE8       30.46F
WEST JORDAN    SUNNY     53  29  40 NW6       30.46F

$$

UTZ011>015-024>027-152300-

CENTRAL/NORTHEAST UTAH

CITY           SKY/WX    TMP DP  RH WIND       PRES   REMARKS
PROVO AIRPORT  SUNNY     53  23  31 W7        30.45F
MOAB/CANYONLAN SUNNY     61   7  11 VRB6      30.44F
DELTA          SUNNY     54  14  20 CALM      30.43F
PRICE          SUNNY     58   6  12 VRB5      30.48F
ROOSEVELT      SUNNY     57   9  14 E3        30.49F
VERNAL         SUNNY     56  11  16 S5        30.47F

$$

UTZ013>016-019>022-027-152300-

SOUTHERN UTAH

CITY           SKY/WX    TMP DP  RH WIND       PRES   REMARKS
BRYCE CANYON   SUNNY     60  -1   8 SE15      30.51F
CEDAR CITY     SUNNY     63  11  13 VRB5      30.40F
MILFORD        SUNNY     61  12  14 N8        30.41F
ST GEORGE      CLEAR     73  11   9 CALM      30.29F
HANKSVILLE     SUNNY     61   9  12 W3        30.47F
BLANDING         N/A     62   5  10 SE7       30.53S

$$

REGIONAL REPORTS     COLORADO/ARIZONA

CITY           SKY/WX    TMP DP  RH WIND       PRES   REMARKS
CRAIG, CO      SUNNY     60   5  11 CALM      30.47F
GRAND JUNCTION SUNNY     63   7  11 VRB5      30.44F
RIFLE, CO      SUNNY     62   4  10 CALM      30.44F
MONTROSE, CO   SUNNY     61  11  14 VRB5      30.45F
CORTEZ, CO     SUNNY     65  11  12 SW9       30.45F
COLORADO CITY    N/A     77   3   6 CALM      30.38F
PAGE, AZ       SUNNY     66   6   9 NE6       30.40F
GRAND CANYON   SUNNY     65  -7   5 NE14      30.45F
KINGMAN, AZ    SUNNY     80  17   9 N12       30.25F
FLAGSTAFF, AZ  SUNNY     64  -6   6 E9        30.47S

$$

REGIONAL REPORTS    NEVADA/IDAHO/WYOMING

CITY           SKY/WX    TMP DP  RH WIND       PRES   REMARKS
LAS VEGAS, NV  MOSUNNY   77  10   7 NE6       30.25F
ELY, NY        SUNNY     64   8  11 N7        30.41F
ELKO, NV       SUNNY     62   5  10 SE3       30.37F
POCATELLO, ID  SUNNY     57  25  29 NE9       30.44F
BURLEY, ID     SUNNY     59  22  24 NE12      30.39F
FORT BRIDGER,    N/A     59  11  15 E6        30.49S
EVANSTON, WY   SUNNY     59  11  15 VRB3      30.47S
ROCK SPRINGS,  SUNNY     55  10  16 SW6       30.46F
KEMMERER, WY   SUNNY     55  10  16 W9        30.48S

$$




USA.gov is the U.S. government's official web portal to all federal, state and local government web resources and services.